| time (UTC) | temp F | wind direction | speed knots | gust knots | rain 1hr in | rain 24hr in | rain mn in | humidity % | barometer mb |
| 20260504150542 | 67 | 227 | 1.7 | 6.1 | 0.00 | 0.00 | 0.00 | 33 | 1015.8 |
| 20260504140602 | 65 | 230 | 0.9 | 5.2 | 0.00 | 0.00 | 0.00 | 35 | 1015.8 |
| 20260504130542 | 62 | 141 | 0.9 | 3.5 | 0.00 | 0.00 | 0.00 | 45 | 1016.0 |
| 20260504110542 | 48 | 270 | 0.0 | 0.0 | 0.00 | 0.00 | 0.00 | 66 | 1016.7 |
| 20260504100543 | 47 | 315 | 0.0 | 0.0 | 0.00 | 0.00 | 0.00 | 66 | 1016.5 |
| 20260504081558 | 49 | 225 | 0.0 | 1.7 | 0.00 | 0.00 | 0.00 | 61 | 1016.9 |
| 20260504080542 | 0 | 0.0 | 0.0 | 0.00 | 0.00 | 0.00 | 1016.8 | ||
| 20260504050543 | 50 | 225 | 0.0 | 1.7 | 0.00 | 0.00 | 0.00 | 52 | 1017.3 |
| 20260504045559 | 50 | 225 | 0.0 | 0.0 | 0.00 | 0.00 | 0.00 | 51 | 1017.4 |
| 20260504044542 | 50 | 225 | 0.0 | 0.0 | 0.00 | 0.00 | 0.00 | 50 | 1017.5 |
| 20260504043558 | 50 | 225 | 0.0 | 0.0 | 0.00 | 0.00 | 0.00 | 45 | 1017.5 |
| 20260504042543 | 50 | 270 | 0.0 | 1.7 | 0.00 | 0.00 | 0.00 | 46 | 1017.4 |
| 20260504041558 | 49 | 270 | 0.0 | 0.0 | 0.00 | 0.00 | 0.00 | 47 | 1017.3 |
| 20260504040543 | 50 | 270 | 0.0 | 0.0 | 0.00 | 0.00 | 0.00 | 46 | 1017.3 |
| 20260504035606 | 49 | 270 | 0.0 | 0.0 | 0.00 | 0.00 | 0.00 | 46 | 1017.3 |
| 20260504034618 | 49 | 270 | 0.0 | 0.0 | 0.00 | 0.00 | 0.00 | 49 | 1017.4 |
| 20260504033557 | 49 | 270 | 0.0 | 0.0 | 0.00 | 0.00 | 0.00 | 48 | 1017.3 |
| 20260504032542 | 50 | 270 | 0.0 | 0.0 | 0.00 | 0.00 | 0.00 | 46 | 1017.4 |
| 20260504031557 | 50 | 270 | 0.0 | 0.9 | 0.00 | 0.00 | 0.00 | 46 | 1017.3 |
| 20260504030542 | 50 | 270 | 0.0 | 0.0 | 0.00 | 0.00 | 0.00 | 46 | 1017.5 |
| 20260504025618 | 49 | 270 | 0.0 | 0.0 | 0.00 | 0.00 | 0.00 | 48 | 1017.2 |
| 20260504024542 | 48 | 270 | 0.0 | 0.9 | 0.00 | 0.00 | 0.00 | 50 | 1017.3 |
| 20260504023557 | 47 | 270 | 0.0 | 0.0 | 0.00 | 0.00 | 0.00 | 52 | 1017.4 |
| 20260504022542 | 48 | 270 | 0.0 | 0.0 | 0.00 | 0.00 | 0.00 | 52 | 1017.1 |
| 20260504021558 | 48 | 270 | 0.0 | 0.0 | 0.00 | 0.00 | 0.00 | 48 | 1017.0 |
| 20260504020542 | 48 | 270 | 0.0 | 0.0 | 0.00 | 0.00 | 0.00 | 46 | 1017.0 |
| 20260504015557 | 48 | 270 | 0.0 | 0.0 | 0.00 | 0.00 | 0.00 | 48 | 1016.8 |
| 20260504014540 | 48 | 270 | 0.0 | 0.0 | 0.00 | 0.00 | 0.00 | 47 | 1016.7 |
| 20260504013557 | 48 | 270 | 0.0 | 0.0 | 0.00 | 0.00 | 0.00 | 46 | 1016.6 |
| 20260504012542 | 49 | 270 | 0.0 | 0.0 | 0.00 | 0.00 | 0.00 | 45 | 1016.4 |
| 20260504011559 | 49 | 270 | 0.0 | 0.0 | 0.00 | 0.00 | 0.00 | 46 | 1016.4 |
| 20260504010542 | 50 | 270 | 0.0 | 0.0 | 0.00 | 0.00 | 0.00 | 44 | 1016.4 |
| 20260504005557 | 51 | 270 | 0.0 | 0.0 | 0.00 | 0.00 | 0.00 | 41 | 1016.4 |
| 20260504004622 | 51 | 270 | 0.0 | 0.0 | 0.00 | 0.00 | 0.00 | 41 | 1016.4 |
| 20260504003558 | 52 | 270 | 0.0 | 0.0 | 0.00 | 0.00 | 0.00 | 39 | 1016.4 |
| 20260504002540 | 52 | 270 | 0.0 | 0.0 | 0.00 | 0.00 | 0.00 | 38 | 1016.2 |
| 20260504001557 | 53 | 270 | 0.0 | 0.0 | 0.00 | 0.00 | 0.00 | 37 | 1016.2 |
| 20260504000542 | 53 | 270 | 0.0 | 0.0 | 0.00 | 0.00 | 0.00 | 35 | 1016.3 |
| 20260503235617 | 54 | 270 | 0.0 | 0.0 | 0.00 | 0.00 | 0.00 | 33 | 1016.2 |
| 20260503234542 | 55 | 270 | 0.0 | 0.0 | 0.00 | 0.00 | 0.00 | 32 | 1016.1 |
| 20260503233558 | 56 | 270 | 0.0 | 0.9 | 0.00 | 0.00 | 0.00 | 33 | 1016.0 |
| 20260503232542 | 56 | 225 | 0.0 | 1.7 | 0.00 | 0.00 | 0.00 | 32 | 1016.0 |
| 20260503231617 | 58 | 270 | 0.0 | 1.7 | 0.00 | 0.00 | 0.00 | 29 | 1015.8 |
| 20260503230541 | 58 | 248 | 0.9 | 2.6 | 0.00 | 0.00 | 0.00 | 29 | 1015.8 |
| 20260503225658 | 59 | 270 | 0.0 | 1.7 | 0.00 | 0.00 | 0.00 | 28 | 1015.8 |
| 20260503224543 | 60 | 206 | 0.9 | 1.7 | 0.00 | 0.00 | 0.00 | 28 | 1015.7 |
| 20260503223557 | 61 | 0 | 0.0 | 1.7 | 0.00 | 0.00 | 0.00 | 21 | 1015.8 |
| 20260503222542 | 62 | 225 | 0.9 | 2.6 | 0.00 | 0.00 | 0.00 | 21 | 1015.8 |
| 20260503221557 | 62 | 135 | 0.0 | 0.9 | 0.00 | 0.00 | 0.00 | 21 | 1015.8 |
| 20260503220541 | 63 | 135 | 0.9 | 2.6 | 0.00 | 0.00 | 0.00 | 20 | 1015.9 |
| 20260503215558 | 64 | 225 | 1.7 | 4.3 | 0.00 | 0.00 | 0.00 | 21 | 1015.9 |
| 20260503214543 | 65 | 235 | 0.9 | 1.7 | 0.00 | 0.00 | 0.00 | 22 | 1015.9 |
| 20260503213617 | 66 | 235 | 0.9 | 1.7 | 0.00 | 0.00 | 0.00 | 22 | 1015.9 |
| 20260503212542 | 67 | 34 | 0.9 | 2.6 | 0.00 | 0.00 | 0.00 | 21 | 1016.1 |
| 20260503211617 | 66 | 164 | 0.9 | 2.6 | 0.00 | 0.00 | 0.00 | 21 | 1016.1 |
| 20260503210542 | 66 | 167 | 0.9 | 3.5 | 0.00 | 0.00 | 0.00 | 22 | 1016.1 |
| 20260503205617 | 66 | 104 | 1.7 | 4.3 | 0.00 | 0.00 | 0.00 | 22 | 1016.2 |
| 20260503204542 | 65 | 352 | 1.7 | 5.2 | 0.00 | 0.00 | 0.00 | 22 | 1016.2 |
| 20260503203557 | 66 | 169 | 1.7 | 4.3 | 0.00 | 0.00 | 0.00 | 22 | 1016.3 |
| 20260503202542 | 65 | 64 | 1.7 | 5.2 | 0.00 | 0.00 | 0.00 | 22 | 1016.3 |
| 20260503201558 | 64 | 106 | 1.7 | 2.6 | 0.00 | 0.00 | 0.00 | 19 | 1016.3 |
| 20260503200542 | 64 | 87 | 0.9 | 3.5 | 0.00 | 0.00 | 0.00 | 21 | 1016.5 |
| 20260503195558 | 64 | 9 | 1.7 | 4.3 | 0.00 | 0.00 | 0.00 | 20 | 1016.7 |
| 20260503194540 | 65 | 166 | 2.6 | 7.0 | 0.00 | 0.00 | 0.00 | 23 | 1016.9 |
| 20260503193618 | 64 | 246 | 1.7 | 5.2 | 0.00 | 0.00 | 0.00 | 20 | 1017.0 |
| 20260503192540 | 62 | 219 | 0.9 | 4.3 | 0.00 | 0.00 | 0.00 | 21 | 1017.1 |
| 20260503191558 | 62 | 10 | 2.6 | 4.3 | 0.00 | 0.00 | 0.00 | 22 | 1017.4 |
| 20260503190540 | 63 | 94 | 1.7 | 6.1 | 0.00 | 0.00 | 0.00 | 20 | 1017.5 |
| 20260503185558 | 63 | 166 | 0.9 | 4.3 | 0.00 | 0.00 | 0.00 | 21 | 1017.6 |
| 20260503184557 | 62 | 32 | 1.7 | 3.5 | 0.00 | 0.00 | 0.00 | 23 | 1017.7 |
| 20260503183558 | 62 | 240 | 1.7 | 4.3 | 0.00 | 0.00 | 0.00 | 23 | 1017.7 |
| 20260503182542 | 61 | 210 | 0.9 | 2.6 | 0.00 | 0.00 | 0.00 | 24 | 1017.8 |
| 20260503181559 | 61 | 205 | 2.6 | 6.1 | 0.00 | 0.00 | 0.00 | 26 | 1017.7 |
| 20260503180621 | 59 | 39 | 1.7 | 5.2 | 0.00 | 0.00 | 0.00 | 25 | 1017.9 |
| 20260503175557 | 59 | 22 | 1.7 | 4.3 | 0.00 | 0.00 | 0.00 | 24 | 1017.9 |
| 20260503174542 | 62 | 49 | 2.6 | 7.0 | 0.00 | 0.00 | 0.00 | 24 | 1018.1 |
| 20260503173558 | 61 | 133 | 2.6 | 4.3 | 0.00 | 0.00 | 0.00 | 27 | 1018.2 |
| 20260503172542 | 58 | 7 | 1.7 | 4.3 | 0.00 | 0.00 | 0.00 | 28 | 1018.3 |
| 20260503171557 | 57 | 344 | 1.7 | 4.3 | 0.00 | 0.00 | 0.00 | 29 | 1018.4 |
| 20260503170541 | 57 | 315 | 2.6 | 9.6 | 0.00 | 0.00 | 0.00 | 31 | 1018.4 |